Time,TemperatureF,DewpointF,PressureIn,WindDirection,WindDirectionDegrees,WindSpeedMPH,WindSpeedGustMPH,Humidity,HourlyPrecipIn,Conditions,Clouds,dailyrainin,SoftwareType,DateUTC
2013-02-14 00:00:00,32.8,28.2,29.73,SW,222,0.0,1.0,83,0.00,,,0.00,WeatherCatV1.11B39,2013-02-14 05:00:00,
2013-02-14 00:05:00,32.8,28.2,29.73,WSW,240,0.0,1.0,83,0.00,,,0.00,WeatherCatV1.11B39,2013-02-14 05:05:00,
2013-02-14 00:10:00,32.8,28.2,29.75,WSW,240,0.0,0.0,83,0.00,,,0.00,WeatherCatV1.11B39,2013-02-14 05:10:00,
2013-02-14 00:15:00,32.8,28.2,29.76,WSW,240,0.0,0.0,83,0.00,,,0.00,WeatherCatV1.11B39,2013-02-14 05:15:00,
2013-02-14 00:20:00,32.9,28.0,29.75,West,269,0.0,1.0,82,0.00,,,0.00,WeatherCatV1.11B39,2013-02-14 05:20:00,
2013-02-14 00:25:00,32.9,28.3,29.75,West,269,0.0,0.0,83,0.00,,,0.00,WeatherCatV1.11B39,2013-02-14 05:25:00,
2013-02-14 00:30:00,32.8,28.2,29.75,NW,321,0.0,0.0,83,0.00,,,0.00,WeatherCatV1.11B39,2013-02-14 05:30:00,
2013-02-14 00:35:00,32.7,28.1,29.75,NW,322,0.0,0.0,83,0.00,,,0.00,WeatherCatV1.11B39,2013-02-14 05:35:00,
2013-02-14 00:40:00,32.7,28.1,29.76,NW,321,0.0,0.0,83,0.00,,,0.00,WeatherCatV1.11B39,2013-02-14 05:40:00,
2013-02-14 00:45:00,32.7,28.1,29.76,NW,322,0.0,0.0,83,0.00,,,0.00,WeatherCatV1.11B39,2013-02-14 05:45:00,
2013-02-14 00:50:00,32.7,28.1,29.76,NW,321,0.0,0.0,83,0.00,,,0.00,WeatherCatV1.11B39,2013-02-14 05:50:00,
2013-02-14 00:55:00,32.7,28.1,29.76,NW,321,0.0,0.0,83,0.00,,,0.00,WeatherCatV1.11B39,2013-02-14 05:55:00,
2013-02-14 01:00:00,32.7,28.1,29.76,NW,321,0.0,0.0,83,0.00,,,0.00,WeatherCatV1.11B39,2013-02-14 06:00:00,
2013-02-14 01:05:00,32.7,28.1,29.75,NW,321,0.0,0.0,83,0.00,,,0.00,WeatherCatV1.11B39,2013-02-14 06:05:00,
2013-02-14 01:10:00,32.7,28.1,29.75,North,356,1.0,1.0,83,0.00,,,0.00,WeatherCatV1.11B39,2013-02-14 06:10:00,
2013-02-14 01:15:00,32.8,27.9,29.75,NNW,347,1.0,2.0,82,0.00,,,0.00,WeatherCatV1.11B39,2013-02-14 06:15:00,
2013-02-14 01:20:00,32.8,27.6,29.75,North,356,0.0,1.0,81,0.00,,,0.00,WeatherCatV1.11B39,2013-02-14 06:20:00,
2013-02-14 01:25:00,32.9,27.7,29.75,North,357,0.0,1.0,81,0.00,,,0.00,WeatherCatV1.11B39,2013-02-14 06:25:00,
2013-02-14 01:30:00,32.9,27.7,29.75,North,353,0.0,0.0,81,0.00,,,0.00,WeatherCatV1.11B39,2013-02-14 06:30:00,
2013-02-14 01:35:00,32.9,27.7,29.75,NNW,334,0.0,1.0,81,0.00,,,0.00,WeatherCatV1.11B39,2013-02-14 06:35:00,
2013-02-14 01:40:00,32.9,27.7,29.74,NNW,341,0.0,0.0,81,0.00,,,0.00,WeatherCatV1.11B39,2013-02-14 06:40:00,
2013-02-14 01:45:00,32.9,28.0,29.74,NE,39,0.0,1.0,82,0.00,,,0.00,WeatherCatV1.11B39,2013-02-14 06:45:00,
2013-02-14 01:50:00,32.8,27.6,29.74,NE,39,0.0,0.0,81,0.00,,,0.00,WeatherCatV1.11B39,2013-02-14 06:50:00,
2013-02-14 01:55:00,32.8,27.3,29.74,NE,38,0.0,1.0,80,0.00,,,0.00,WeatherCatV1.11B39,2013-02-14 06:55:00,
2013-02-14 02:00:00,32.9,27.4,29.74,SSE,156,0.0,1.0,80,0.00,,,0.00,WeatherCatV1.11B39,2013-02-14 07:00:00,
2013-02-14 02:05:00,32.9,27.1,29.74,West,266,0.0,1.0,79,0.00,,,0.00,WeatherCatV1.11B39,2013-02-14 07:05:00,
2013-02-14 02:10:00,33.0,26.9,29.74,SW,228,0.0,0.0,78,0.00,,,0.00,WeatherCatV1.11B39,2013-02-14 07:10:00,
2013-02-14 02:15:00,33.0,26.6,29.73,SW,226,0.0,0.0,77,0.00,,,0.00,WeatherCatV1.11B39,2013-02-14 07:15:00,
2013-02-14 02:20:00,32.9,26.5,29.74,SW,226,0.0,0.0,77,0.00,,,0.00,WeatherCatV1.11B39,2013-02-14 07:20:00,
2013-02-14 02:25:00,32.9,26.2,29.74,SW,227,0.0,0.0,76,0.00,,,0.00,WeatherCatV1.11B39,2013-02-14 07:25:00,
2013-02-14 02:30:00,32.8,26.1,29.74,SW,226,0.0,0.0,76,0.00,,,0.00,WeatherCatV1.11B39,2013-02-14 07:30:00,
2013-02-14 02:35:00,32.8,25.8,29.74,SW,226,0.0,0.0,75,0.00,,,0.00,WeatherCatV1.11B39,2013-02-14 07:35:00,
2013-02-14 02:40:00,32.9,26.2,29.74,SW,226,0.0,0.0,76,0.00,,,0.00,WeatherCatV1.11B39,2013-02-14 07:40:00,
2013-02-14 02:45:00,32.9,25.9,29.75,North,6,0.0,0.0,75,0.00,,,0.00,WeatherCatV1.11B39,2013-02-14 07:45:00,
2013-02-14 02:50:00,32.8,26.1,29.75,North,6,0.0,0.0,76,0.00,,,0.00,WeatherCatV1.11B39,2013-02-14 07:50:00,
2013-02-14 02:55:00,32.7,26.3,29.75,North,6,0.0,0.0,77,0.00,,,0.00,WeatherCatV1.11B39,2013-02-14 07:55:00,
2013-02-14 03:00:00,32.6,26.5,29.75,North,6,0.0,0.0,78,0.00,,,0.00,WeatherCatV1.11B39,2013-02-14 08:00:00,
2013-02-14 03:05:00,32.4,26.3,29.75,North,6,0.0,0.0,78,0.00,,,0.00,WeatherCatV1.11B39,2013-02-14 08:05:00,
2013-02-14 03:10:00,32.3,26.5,29.75,North,6,0.0,0.0,79,0.00,,,0.00,WeatherCatV1.11B39,2013-02-14 08:10:00,
2013-02-14 03:15:00,32.2,26.4,29.75,North,6,0.0,0.0,79,0.00,,,0.00,WeatherCatV1.11B39,2013-02-14 08:15:00,
2013-02-14 03:20:00,32.1,26.0,29.75,North,6,0.0,1.0,78,0.00,,,0.00,WeatherCatV1.11B39,2013-02-14 08:20:00,
2013-02-14 03:25:00,32.1,25.7,29.75,North,6,0.0,1.0,77,0.00,,,0.00,WeatherCatV1.11B39,2013-02-14 08:25:00,
2013-02-14 03:30:00,32.1,25.7,29.75,North,6,0.0,1.0,77,0.00,,,0.00,WeatherCatV1.11B39,2013-02-14 08:30:00,
2013-02-14 03:35:00,32.0,25.3,29.75,North,6,0.0,0.0,76,0.00,,,0.00,WeatherCatV1.11B39,2013-02-14 08:35:00,
2013-02-14 03:40:00,31.8,24.8,29.75,North,6,0.0,1.0,75,0.00,,,0.00,WeatherCatV1.11B39,2013-02-14 08:40:00,
2013-02-14 03:45:00,31.8,25.1,29.75,North,6,0.0,0.0,76,0.00,,,0.00,WeatherCatV1.11B39,2013-02-14 08:45:00,
2013-02-14 03:50:00,31.7,24.7,29.76,North,6,0.0,1.0,75,0.00,,,0.00,WeatherCatV1.11B39,2013-02-14 08:50:00,
2013-02-14 03:55:00,31.6,24.6,29.76,West,260,0.0,0.0,75,0.00,,,0.00,WeatherCatV1.11B39,2013-02-14 08:55:00,
2013-02-14 04:00:00,31.5,24.5,29.77,West,259,0.0,1.0,75,0.00,,,0.00,WeatherCatV1.11B39,2013-02-14 09:00:00,
2013-02-14 04:05:00,31.4,24.1,29.77,WSW,238,0.0,0.0,74,0.00,,,0.00,WeatherCatV1.11B39,2013-02-14 09:05:00,
2013-02-14 04:10:00,31.5,23.9,29.77,SSE,150,0.0,1.0,73,0.00,,,0.00,WeatherCatV1.11B39,2013-02-14 09:10:00,
2013-02-14 04:15:00,31.6,23.6,29.77,SW,228,0.0,1.0,72,0.00,,,0.00,WeatherCatV1.11B39,2013-02-14 09:15:00,
2013-02-14 04:20:00,31.7,23.7,29.77,NNW,342,0.0,2.0,72,0.00,,,0.00,WeatherCatV1.11B39,2013-02-14 09:20:00,
2013-02-14 04:25:00,31.8,23.5,29.77,North,11,0.0,1.0,71,0.00,,,0.00,WeatherCatV1.11B39,2013-02-14 09:25:00,
2013-02-14 04:30:00,31.8,23.8,29.78,North,11,1.0,1.0,72,0.00,,,0.00,WeatherCatV1.11B39,2013-02-14 09:30:00,
2013-02-14 04:35:00,31.9,23.6,29.78,ENE,58,0.0,1.0,71,0.00,,,0.00,WeatherCatV1.11B39,2013-02-14 09:35:00,
2013-02-14 04:40:00,31.9,23.6,29.78,NNW,347,0.0,1.0,71,0.00,,,0.00,WeatherCatV1.11B39,2013-02-14 09:40:00,
2013-02-14 04:45:00,31.9,23.9,29.78,NNW,346,0.0,1.0,72,0.00,,,0.00,WeatherCatV1.11B39,2013-02-14 09:45:00,
2013-02-14 04:50:00,31.9,23.6,29.78,North,5,0.0,1.0,71,0.00,,,0.00,WeatherCatV1.11B39,2013-02-14 09:50:00,
2013-02-14 04:55:00,31.9,23.6,29.78,North,6,1.0,3.0,71,0.00,,,0.00,WeatherCatV1.11B39,2013-02-14 09:55:00,
2013-02-14 05:00:00,32.0,23.3,29.78,WSW,243,0.0,2.0,70,0.00,,,0.00,WeatherCatV1.11B39,2013-02-14 10:00:00,
2013-02-14 05:05:00,32.1,23.4,29.78,NNW,330,1.0,2.0,70,0.00,,,0.00,WeatherCatV1.11B39,2013-02-14 10:05:00,
2013-02-14 05:10:00,32.2,23.5,29.78,NNW,348,0.0,4.0,70,0.00,,,0.00,WeatherCatV1.11B39,2013-02-14 10:10:00,
2013-02-14 05:15:00,32.1,23.4,29.78,NNE,23,1.0,1.0,70,0.00,,,0.00,WeatherCatV1.11B39,2013-02-14 10:15:00,
2013-02-14 05:20:00,32.1,23.1,29.78,SW,217,0.0,4.0,69,0.00,,,0.00,WeatherCatV1.11B39,2013-02-14 10:20:00,
2013-02-14 05:25:00,32.0,23.0,29.78,NNW,329,1.0,1.0,69,0.00,,,0.00,WeatherCatV1.11B39,2013-02-14 10:25:00,
2013-02-14 05:30:00,31.9,22.9,29.78,North,0,0.0,1.0,69,0.00,,,0.00,WeatherCatV1.11B39,2013-02-14 10:30:00,
2013-02-14 05:35:00,31.7,22.4,29.78,North,4,1.0,2.0,68,0.00,,,0.00,WeatherCatV1.11B39,2013-02-14 10:35:00,
2013-02-14 05:40:00,31.7,22.4,29.78,North,9,0.0,1.0,68,0.00,,,0.00,WeatherCatV1.11B39,2013-02-14 10:40:00,
2013-02-14 05:45:00,31.6,22.3,29.78,NW,320,1.0,1.0,68,0.00,,,0.00,WeatherCatV1.11B39,2013-02-14 10:45:00,
2013-02-14 05:50:00,31.5,22.2,29.79,NNE,13,1.0,1.0,68,0.00,,,0.00,WeatherCatV1.11B39,2013-02-14 10:50:00,
2013-02-14 05:55:00,31.5,22.5,29.79,West,262,0.0,0.0,69,0.00,,,0.00,WeatherCatV1.11B39,2013-02-14 10:55:00,
2013-02-14 06:00:00,31.3,22.3,29.80,North,356,0.0,0.0,69,0.00,,,0.00,WeatherCatV1.11B39,2013-02-14 11:00:00,
2013-02-14 06:05:00,31.1,22.1,29.80,North,356,0.0,0.0,69,0.00,,,0.00,WeatherCatV1.11B39,2013-02-14 11:05:00,
2013-02-14 06:10:00,31.0,22.4,29.80,North,356,0.0,0.0,70,0.00,,,0.00,WeatherCatV1.11B39,2013-02-14 11:10:00,
2013-02-14 06:15:00,30.8,22.5,29.81,North,356,0.0,0.0,71,0.00,,,0.00,WeatherCatV1.11B39,2013-02-14 11:15:00,
2013-02-14 06:20:00,30.5,22.2,29.80,North,356,0.0,1.0,71,0.00,,,0.00,WeatherCatV1.11B39,2013-02-14 11:20:00,
2013-02-14 06:25:00,30.2,21.9,29.81,North,356,0.0,0.0,71,0.00,,,0.00,WeatherCatV1.11B39,2013-02-14 11:25:00,
2013-02-14 06:30:00,29.9,22.0,29.81,WNW,295,0.0,0.0,72,0.00,,,0.00,WeatherCatV1.11B39,2013-02-14 11:30:00,
2013-02-14 06:35:00,29.7,22.1,29.81,WNW,295,0.0,0.0,73,0.00,,,0.00,WeatherCatV1.11B39,2013-02-14 11:35:00,
2013-02-14 06:40:00,29.4,21.8,29.82,WNW,295,0.0,0.0,73,0.00,,,0.00,WeatherCatV1.11B39,2013-02-14 11:40:00,
2013-02-14 06:45:00,29.2,22.0,29.82,WNW,295,0.0,0.0,74,0.00,,,0.00,WeatherCatV1.11B39,2013-02-14 11:45:00,
2013-02-14 06:50:00,29.1,21.9,29.82,WNW,295,0.0,0.0,74,0.00,,,0.00,WeatherCatV1.11B39,2013-02-14 11:50:00,
2013-02-14 06:55:00,28.9,21.7,29.82,NNW,346,0.0,1.0,74,0.00,,,0.00,WeatherCatV1.11B39,2013-02-14 11:55:00,
2013-02-14 07:00:00,28.8,21.6,29.82,NNW,346,0.0,0.0,74,0.00,,,0.00,WeatherCatV1.11B39,2013-02-14 12:00:00,
2013-02-14 07:05:00,28.5,21.6,29.82,NNW,346,0.0,0.0,75,0.00,,,0.00,WeatherCatV1.11B39,2013-02-14 12:05:00,
2013-02-14 07:10:00,28.5,21.6,29.83,NNW,346,0.0,0.0,75,0.00,,,0.00,WeatherCatV1.11B39,2013-02-14 12:10:00,
2013-02-14 07:15:00,28.7,21.8,29.83,West,262,0.0,0.0,75,0.00,,,0.00,WeatherCatV1.11B39,2013-02-14 12:15:00,
2013-02-14 07:18:00,28.8,21.9,29.83,West,261,0.0,0.0,75,0.00,,,0.00,WeatherCatV1.11B39,2013-02-14 12:18:00,
2013-02-14 07:23:00,29.0,22.1,29.83,NNE,26,0.0,1.0,75,0.00,,,0.00,WeatherCatV1.11B39,2013-02-14 12:23:00,
2013-02-14 07:28:00,29.3,22.1,29.84,NNE,26,0.0,0.0,74,0.00,,,0.00,WeatherCatV1.11B39,2013-02-14 12:28:00,
2013-02-14 07:33:00,29.6,22.3,29.85,West,263,0.0,1.0,74,0.00,,,0.00,WeatherCatV1.11B39,2013-02-14 12:33:00,
2013-02-14 07:38:00,30.0,22.4,29.85,SSW,205,0.0,1.0,73,0.00,,,0.00,WeatherCatV1.11B39,2013-02-14 12:38:00,
2013-02-14 07:43:00,30.4,22.5,29.85,NNE,20,0.0,1.0,72,0.00,,,0.00,WeatherCatV1.11B39,2013-02-14 12:43:00,
2013-02-14 07:48:00,31.0,22.4,29.85,NNE,16,1.0,2.0,70,0.00,,,0.00,WeatherCatV1.11B39,2013-02-14 12:48:00,
2013-02-14 07:53:00,31.5,22.5,29.85,NNE,19,2.0,4.0,69,0.00,,,0.00,WeatherCatV1.11B39,2013-02-14 12:53:00,
2013-02-14 07:58:00,32.0,22.7,29.85,NNE,18,1.0,3.0,68,0.00,,,0.00,WeatherCatV1.11B39,2013-02-14 12:58:00,
2013-02-14 08:03:00,32.3,22.6,29.85,WNW,300,2.0,2.0,67,0.00,,,0.00,WeatherCatV1.11B39,2013-02-14 13:03:00,
2013-02-14 08:08:00,32.6,22.5,29.86,NW,326,1.0,3.0,66,0.00,,,0.00,WeatherCatV1.11B39,2013-02-14 13:08:00,
2013-02-14 08:13:00,32.9,22.4,29.86,North,356,0.0,4.0,65,0.00,,,0.00,WeatherCatV1.11B39,2013-02-14 13:13:00,
2013-02-14 08:18:00,33.2,22.7,29.86,NW,323,0.0,0.0,65,0.00,,,0.00,WeatherCatV1.11B39,2013-02-14 13:18:00,
2013-02-14 08:23:00,33.7,22.8,29.87,North,359,0.0,1.0,64,0.00,,,0.00,WeatherCatV1.11B39,2013-02-14 13:23:00,
2013-02-14 08:28:00,34.1,23.2,29.87,North,356,0.0,1.0,64,0.00,,,0.00,WeatherCatV1.11B39,2013-02-14 13:28:00,
2013-02-14 08:33:00,34.4,22.7,29.87,NNE,16,0.0,2.0,62,0.00,,,0.00,WeatherCatV1.11B39,2013-02-14 13:33:00,
2013-02-14 08:38:00,34.6,22.6,29.87,North,6,1.0,3.0,61,0.00,,,0.00,WeatherCatV1.11B39,2013-02-14 13:38:00,
2013-02-14 08:43:00,35.0,22.5,29.87,NE,53,0.0,1.0,60,0.00,,,0.00,WeatherCatV1.11B39,2013-02-14 13:43:00,
2013-02-14 08:48:00,35.4,22.1,29.88,NW,324,0.0,1.0,58,0.00,,,0.00,WeatherCatV1.11B39,2013-02-14 13:48:00,
2013-02-14 08:53:00,35.8,22.5,29.88,SW,217,0.0,0.0,58,0.00,,,0.00,WeatherCatV1.11B39,2013-02-14 13:53:00,
2013-02-14 08:58:00,36.3,22.5,29.88,SSW,210,0.0,1.0,57,0.00,,,0.00,WeatherCatV1.11B39,2013-02-14 13:58:00,
2013-02-14 09:03:00,36.7,22.5,29.89,WSW,250,1.0,2.0,56,0.00,,,0.00,WeatherCatV1.11B39,2013-02-14 14:03:00,
2013-02-14 09:08:00,36.8,22.6,29.89,North,351,2.0,3.0,56,0.00,,,0.00,WeatherCatV1.11B39,2013-02-14 14:08:00,
2013-02-14 09:13:00,36.9,22.3,29.89,NNE,15,1.0,5.0,55,0.00,,,0.00,WeatherCatV1.11B39,2013-02-14 14:13:00,
2013-02-14 09:18:00,37.1,22.0,29.89,NNW,335,1.0,2.0,54,0.00,,,0.00,WeatherCatV1.11B39,2013-02-14 14:18:00,
2013-02-14 09:23:00,37.5,22.4,29.89,North,356,1.0,4.0,54,0.00,,,0.00,WeatherCatV1.11B39,2013-02-14 14:23:00,
2013-02-14 09:28:00,37.8,22.2,29.89,NNW,335,1.0,3.0,53,0.00,,,0.00,WeatherCatV1.11B39,2013-02-14 14:28:00,
2013-02-14 09:33:00,38.3,22.7,29.90,SW,236,2.0,2.0,53,0.00,,,0.00,WeatherCatV1.11B39,2013-02-14 14:33:00,
2013-02-14 09:38:00,38.8,22.2,29.90,North,359,0.0,2.0,51,0.00,,,0.00,WeatherCatV1.11B39,2013-02-14 14:38:00,
2013-02-14 09:43:00,39.6,22.0,29.90,NNE,19,1.0,2.0,49,0.00,,,0.00,WeatherCatV1.11B39,2013-02-14 14:43:00,
2013-02-14 09:48:00,39.6,21.0,29.90,North,5,2.0,2.0,47,0.00,,,0.00,WeatherCatV1.11B39,2013-02-14 14:48:00,
2013-02-14 09:53:00,39.6,21.0,29.90,SW,236,2.0,4.0,47,0.00,,,0.00,WeatherCatV1.11B39,2013-02-14 14:53:00,
2013-02-14 09:58:00,39.9,21.3,29.90,SSW,211,0.0,2.0,47,0.00,,,0.00,WeatherCatV1.11B39,2013-02-14 14:58:00,
2013-02-14 10:03:00,40.3,21.7,29.90,North,354,0.0,3.0,47,0.00,,,0.00,WeatherCatV1.11B39,2013-02-14 15:03:00,
2013-02-14 10:08:00,40.5,20.9,29.90,NW,322,1.0,2.0,45,0.00,,,0.00,WeatherCatV1.11B39,2013-02-14 15:08:00,
2013-02-14 10:13:00,40.7,21.5,29.90,ENE,72,0.0,4.0,46,0.00,,,0.00,WeatherCatV1.11B39,2013-02-14 15:13:00,
2013-02-14 10:18:00,40.9,21.7,29.90,SSW,212,0.0,1.0,46,0.00,,,0.00,WeatherCatV1.11B39,2013-02-14 15:18:00,
2013-02-14 10:23:00,41.3,21.6,29.90,NNE,23,0.0,4.0,45,0.00,,,0.00,WeatherCatV1.11B39,2013-02-14 15:23:00,
2013-02-14 10:28:00,41.4,21.1,29.90,NNW,335,1.0,2.0,44,0.00,,,0.00,WeatherCatV1.11B39,2013-02-14 15:28:00,
2013-02-14 10:33:00,41.4,20.6,29.90,SSW,207,2.0,3.0,43,0.00,,,0.00,WeatherCatV1.11B39,2013-02-14 15:33:00,
2013-02-14 10:38:00,41.6,21.9,29.91,NNW,336,1.0,3.0,45,0.00,,,0.00,WeatherCatV1.11B39,2013-02-14 15:38:00,
2013-02-14 10:43:00,42.2,21.9,29.91,NNE,28,3.0,4.0,44,0.00,,,0.00,WeatherCatV1.11B39,2013-02-14 15:43:00,
2013-02-14 10:48:00,42.0,21.1,29.91,ENE,78,0.0,7.0,43,0.00,,,0.00,WeatherCatV1.11B39,2013-02-14 15:48:00,
2013-02-14 10:53:00,42.0,21.7,29.91,North,356,1.0,3.0,44,0.00,,,0.00,WeatherCatV1.11B39,2013-02-14 15:53:00,
2013-02-14 10:58:00,42.2,20.8,29.91,SSE,160,2.0,3.0,42,0.00,,,0.00,WeatherCatV1.11B39,2013-02-14 15:58:00,
2013-02-14 11:03:00,42.4,21.5,29.91,South,191,0.0,2.0,43,0.00,,,0.00,WeatherCatV1.11B39,2013-02-14 16:03:00,
2013-02-14 11:08:00,42.6,21.7,29.91,NNW,330,1.0,1.0,43,0.00,,,0.00,WeatherCatV1.11B39,2013-02-14 16:08:00,
2013-02-14 11:13:00,42.7,20.7,29.91,SW,222,0.0,7.0,41,0.00,,,0.00,WeatherCatV1.11B39,2013-02-14 16:13:00,
2013-02-14 11:18:00,42.6,21.7,29.91,SSW,213,0.0,1.0,43,0.00,,,0.00,WeatherCatV1.11B39,2013-02-14 16:18:00,
2013-02-14 11:23:00,42.9,21.4,29.91,NNE,23,3.0,4.0,42,0.00,,,0.00,WeatherCatV1.11B39,2013-02-14 16:23:00,
2013-02-14 11:28:00,42.8,21.3,29.91,NNE,27,1.0,2.0,42,0.00,,,0.00,WeatherCatV1.11B39,2013-02-14 16:28:00,
2013-02-14 11:33:00,42.7,21.8,29.91,SSE,163,0.0,5.0,43,0.00,,,0.00,WeatherCatV1.11B39,2013-02-14 16:33:00,
2013-02-14 11:38:00,42.5,21.0,29.91,NNW,348,2.0,8.0,42,0.00,,,0.00,WeatherCatV1.11B39,2013-02-14 16:38:00,
2013-02-14 11:43:00,42.2,21.3,29.91,West,272,0.0,3.0,43,0.00,,,0.00,WeatherCatV1.11B39,2013-02-14 16:43:00,
2013-02-14 11:48:00,42.4,21.5,29.91,South,191,2.0,2.0,43,0.00,,,0.00,WeatherCatV1.11B39,2013-02-14 16:48:00,
2013-02-14 11:53:00,42.8,21.9,29.91,NE,41,1.0,3.0,43,0.00,,,0.00,WeatherCatV1.11B39,2013-02-14 16:53:00,
2013-02-14 11:58:00,43.0,21.5,29.91,North,3,3.0,4.0,42,0.00,,,0.00,WeatherCatV1.11B39,2013-02-14 16:58:00,
2013-02-14 12:03:00,43.0,21.5,29.91,SW,228,1.0,2.0,42,0.00,,,0.00,WeatherCatV1.11B39,2013-02-14 17:03:00,
2013-02-14 12:08:00,42.7,20.7,29.91,NNW,328,1.0,4.0,41,0.00,,,0.00,WeatherCatV1.11B39,2013-02-14 17:08:00,
2013-02-14 12:13:00,42.7,21.8,29.91,WSW,249,1.0,6.0,43,0.00,,,0.00,WeatherCatV1.11B39,2013-02-14 17:13:00,
2013-02-14 12:18:00,42.7,21.2,29.91,NNE,24,4.0,7.0,42,0.00,,,0.00,WeatherCatV1.11B39,2013-02-14 17:18:00,
2013-02-14 12:23:00,42.6,21.7,29.91,NNW,330,0.0,2.0,43,0.00,,,0.00,WeatherCatV1.11B39,2013-02-14 17:23:00,
2013-02-14 12:28:00,43.0,21.5,29.91,SE,124,3.0,6.0,42,0.00,,,0.00,WeatherCatV1.11B39,2013-02-14 17:28:00,
2013-02-14 12:33:00,43.1,22.1,29.91,North,4,2.0,3.0,43,0.00,,,0.00,WeatherCatV1.11B39,2013-02-14 17:33:00,
2013-02-14 12:38:00,42.9,21.4,29.91,North,9,2.0,4.0,42,0.00,,,0.00,WeatherCatV1.11B39,2013-02-14 17:38:00,
2013-02-14 12:43:00,42.4,21.0,29.91,SSW,207,2.0,2.0,42,0.00,,,0.00,WeatherCatV1.11B39,2013-02-14 17:43:00,
2013-02-14 12:48:00,42.5,21.6,29.91,WSW,252,1.0,2.0,43,0.00,,,0.00,WeatherCatV1.11B39,2013-02-14 17:48:00,
2013-02-14 12:53:00,43.2,22.8,29.91,NNW,333,0.0,2.0,44,0.00,,,0.00,WeatherCatV1.11B39,2013-02-14 17:53:00,
2013-02-14 12:58:00,43.7,22.1,29.91,NNW,335,1.0,2.0,42,0.00,,,0.00,WeatherCatV1.11B39,2013-02-14 17:58:00,
2013-02-14 13:03:00,43.5,22.5,29.90,NNE,12,2.0,2.0,43,0.00,,,0.00,WeatherCatV1.11B39,2013-02-14 18:03:00,
2013-02-14 13:08:00,43.3,22.3,29.91,SSW,200,0.0,2.0,43,0.00,,,0.00,WeatherCatV1.11B39,2013-02-14 18:08:00,
2013-02-14 13:13:00,43.6,21.5,29.90,West,263,0.0,0.0,41,0.00,,,0.00,WeatherCatV1.11B39,2013-02-14 18:13:00,
2013-02-14 13:18:00,43.8,21.1,29.91,SSW,207,0.0,1.0,40,0.00,,,0.00,WeatherCatV1.11B39,2013-02-14 18:18:00,
2013-02-14 13:23:00,44.3,21.5,29.91,South,170,0.0,3.0,40,0.00,,,0.00,WeatherCatV1.11B39,2013-02-14 18:23:00,
2013-02-14 13:28:00,44.3,20.9,29.91,NW,309,0.0,4.0,39,0.00,,,0.00,WeatherCatV1.11B39,2013-02-14 18:28:00,
2013-02-14 13:33:00,43.9,22.3,29.91,South,190,0.0,1.0,42,0.00,,,0.00,WeatherCatV1.11B39,2013-02-14 18:33:00,
2013-02-14 13:38:00,44.2,23.1,29.91,SW,236,0.0,0.0,43,0.00,,,0.00,WeatherCatV1.11B39,2013-02-14 18:38:00,
2013-02-14 13:43:00,44.4,21.0,29.91,SE,145,1.0,2.0,39,0.00,,,0.00,WeatherCatV1.11B39,2013-02-14 18:43:00,
2013-02-14 13:48:00,44.5,21.7,29.91,North,11,0.0,2.0,40,0.00,,,0.00,WeatherCatV1.11B39,2013-02-14 18:48:00,
2013-02-14 13:53:00,44.4,21.0,29.90,WSW,252,1.0,7.0,39,0.00,,,0.00,WeatherCatV1.11B39,2013-02-14 18:53:00,
2013-02-14 13:58:00,44.5,21.7,29.91,South,191,1.0,2.0,40,0.00,,,0.00,WeatherCatV1.11B39,2013-02-14 18:58:00,
2013-02-14 14:03:00,44.5,21.1,29.91,SSW,201,2.0,2.0,39,0.00,,,0.00,WeatherCatV1.11B39,2013-02-14 19:03:00,
2013-02-14 14:08:00,44.7,21.9,29.91,SW,215,1.0,3.0,40,0.00,,,0.00,WeatherCatV1.11B39,2013-02-14 19:08:00,
2013-02-14 14:13:00,45.0,22.1,29.91,ENE,61,1.0,2.0,40,0.00,,,0.00,WeatherCatV1.11B39,2013-02-14 19:13:00,
2013-02-14 14:18:00,45.2,21.7,29.91,SW,214,0.0,1.0,39,0.00,,,0.00,WeatherCatV1.11B39,2013-02-14 19:18:00,
2013-02-14 14:23:00,45.8,21.0,29.91,North,8,0.0,2.0,37,0.00,,,0.00,WeatherCatV1.11B39,2013-02-14 19:23:00,
2013-02-14 14:28:00,46.0,21.8,29.91,SW,222,0.0,1.0,38,0.00,,,0.00,WeatherCatV1.11B39,2013-02-14 19:28:00,
2013-02-14 14:33:00,46.2,21.4,29.91,SSW,199,0.0,1.0,37,0.00,,,0.00,WeatherCatV1.11B39,2013-02-14 19:33:00,
2013-02-14 14:38:00,46.7,21.2,29.91,SSW,199,0.0,1.0,36,0.00,,,0.00,WeatherCatV1.11B39,2013-02-14 19:38:00,
2013-02-14 14:43:00,46.7,21.8,29.91,NW,311,0.0,3.0,37,0.00,,,0.00,WeatherCatV1.11B39,2013-02-14 19:43:00,
2013-02-14 14:48:00,46.1,21.9,29.91,SSE,151,0.0,2.0,38,0.00,,,0.00,WeatherCatV1.11B39,2013-02-14 19:48:00,
2013-02-14 14:53:00,46.7,21.8,29.91,NNW,342,0.0,1.0,37,0.00,,,0.00,WeatherCatV1.11B39,2013-02-14 19:53:00,
2013-02-14 14:58:00,47.6,23.3,29.91,North,8,0.0,1.0,38,0.00,,,0.00,WeatherCatV1.11B39,2013-02-14 19:58:00,
2013-02-14 15:03:00,48.2,22.5,29.91,SSE,159,0.0,0.0,36,0.00,,,0.00,WeatherCatV1.11B39,2013-02-14 20:03:00,
2013-02-14 15:08:00,48.5,21.4,29.91,SW,217,0.0,2.0,34,0.00,,,0.00,WeatherCatV1.11B39,2013-02-14 20:08:00,
2013-02-14 15:13:00,48.8,22.4,29.91,South,176,1.0,2.0,35,0.00,,,0.00,WeatherCatV1.11B39,2013-02-14 20:13:00,
2013-02-14 15:18:00,48.5,22.8,29.92,SSE,156,0.0,2.0,36,0.00,,,0.00,WeatherCatV1.11B39,2013-02-14 20:18:00,
2013-02-14 15:23:00,48.1,22.4,29.92,SSE,151,2.0,3.0,36,0.00,,,0.00,WeatherCatV1.11B39,2013-02-14 20:23:00,
2013-02-14 15:28:00,48.1,21.8,29.92,WSW,247,0.0,2.0,35,0.00,,,0.00,WeatherCatV1.11B39,2013-02-14 20:28:00,
2013-02-14 15:33:00,48.0,21.7,29.93,SW,214,0.0,3.0,35,0.00,,,0.00,WeatherCatV1.11B39,2013-02-14 20:33:00,
2013-02-14 15:38:00,47.4,21.1,29.93,SW,221,1.0,1.0,35,0.00,,,0.00,WeatherCatV1.11B39,2013-02-14 20:38:00,
2013-02-14 15:43:00,47.2,21.0,29.93,SSW,201,0.0,2.0,35,0.00,,,0.00,WeatherCatV1.11B39,2013-02-14 20:43:00,
2013-02-14 15:48:00,47.3,21.7,29.93,SSE,153,2.0,5.0,36,0.00,,,0.00,WeatherCatV1.11B39,2013-02-14 20:48:00,
2013-02-14 15:53:00,47.1,24.0,29.93,SSE,160,4.0,4.0,40,0.00,,,0.00,WeatherCatV1.11B39,2013-02-14 20:53:00,
2013-02-14 15:58:00,46.7,23.7,29.93,SSW,211,2.0,2.0,40,0.00,,,0.00,WeatherCatV1.11B39,2013-02-14 20:58:00,
2013-02-14 16:03:00,46.1,23.1,29.93,SSE,162,2.0,2.0,40,0.00,,,0.00,WeatherCatV1.11B39,2013-02-14 21:03:00,
2013-02-14 16:08:00,45.8,24.0,29.93,SSE,162,0.0,4.0,42,0.00,,,0.00,WeatherCatV1.11B39,2013-02-14 21:08:00,
2013-02-14 16:13:00,45.2,24.6,29.93,SSE,165,0.0,1.0,44,0.00,,,0.00,WeatherCatV1.11B39,2013-02-14 21:13:00,
2013-02-14 16:18:00,44.4,24.4,29.93,NNE,22,0.0,1.0,45,0.00,,,0.00,WeatherCatV1.11B39,2013-02-14 21:18:00,
2013-02-14 16:23:00,43.5,23.6,29.93,SW,218,0.0,3.0,45,0.00,,,0.00,WeatherCatV1.11B39,2013-02-14 21:23:00,
2013-02-14 16:28:00,42.8,24.0,29.94,SSW,207,0.0,0.0,47,0.00,,,0.00,WeatherCatV1.11B39,2013-02-14 21:28:00,
2013-02-14 16:33:00,42.0,23.2,29.94,SSE,162,2.0,3.0,47,0.00,,,0.00,WeatherCatV1.11B39,2013-02-14 21:33:00,
2013-02-14 16:38:00,41.5,23.8,29.94,SSE,158,0.0,1.0,49,0.00,,,0.00,WeatherCatV1.11B39,2013-02-14 21:38:00,
2013-02-14 16:43:00,41.0,23.3,29.94,WNW,300,0.0,1.0,49,0.00,,,0.00,WeatherCatV1.11B39,2013-02-14 21:43:00,
2013-02-14 16:48:00,40.4,23.2,29.95,SW,218,0.0,1.0,50,0.00,,,0.00,WeatherCatV1.11B39,2013-02-14 21:48:00,
2013-02-14 16:53:00,40.0,23.3,29.95,SSE,160,0.0,1.0,51,0.00,,,0.00,WeatherCatV1.11B39,2013-02-14 21:53:00,
2013-02-14 16:58:00,39.7,24.0,29.96,SSE,161,0.0,0.0,53,0.00,,,0.00,WeatherCatV1.11B39,2013-02-14 21:58:00,
2013-02-14 17:03:00,39.2,24.0,29.96,SSW,194,0.0,1.0,54,0.00,,,0.00,WeatherCatV1.11B39,2013-02-14 22:03:00,
2013-02-14 17:08:00,38.9,25.0,29.96,North,351,3.0,3.0,57,0.00,,,0.00,WeatherCatV1.11B39,2013-02-14 22:08:00,
2013-02-14 17:13:00,38.4,24.9,29.96,West,273,0.0,2.0,58,0.00,,,0.00,WeatherCatV1.11B39,2013-02-14 22:13:00,
2013-02-14 17:18:00,38.0,25.0,29.96,WSW,253,0.0,1.0,59,0.00,,,0.00,WeatherCatV1.11B39,2013-02-14 22:18:00,
2013-02-14 17:23:00,37.6,25.4,29.96,SSW,212,0.0,1.0,61,0.00,,,0.00,WeatherCatV1.11B39,2013-02-14 22:23:00,
2013-02-14 17:28:00,37.3,25.5,29.96,NW,305,0.0,0.0,62,0.00,,,0.00,WeatherCatV1.11B39,2013-02-14 22:28:00,
2013-02-14 17:33:00,37.0,25.6,29.97,West,263,0.0,0.0,63,0.00,,,0.00,WeatherCatV1.11B39,2013-02-14 22:33:00,
2013-02-14 17:38:00,36.7,25.7,29.97,West,269,0.0,0.0,64,0.00,,,0.00,WeatherCatV1.11B39,2013-02-14 22:38:00,
2013-02-14 17:43:00,36.5,26.2,29.97,West,269,0.0,0.0,66,0.00,,,0.00,WeatherCatV1.11B39,2013-02-14 22:43:00,
2013-02-14 17:48:00,36.3,26.0,29.97,WSW,248,0.0,1.0,66,0.00,,,0.00,WeatherCatV1.11B39,2013-02-14 22:48:00,
2013-02-14 17:53:00,36.2,26.3,29.97,WSW,248,0.0,1.0,67,0.00,,,0.00,WeatherCatV1.11B39,2013-02-14 22:53:00,
2013-02-14 17:58:00,36.0,26.1,29.98,SW,214,0.0,1.0,67,0.00,,,0.00,WeatherCatV1.11B39,2013-02-14 22:58:00,
2013-02-14 18:03:00,35.9,26.0,29.98,SW,214,0.0,0.0,67,0.00,,,0.00,WeatherCatV1.11B39,2013-02-14 23:03:00,
2013-02-14 18:09:00,35.7,26.2,29.98,West,259,0.0,0.0,68,0.00,,,0.00,WeatherCatV1.11B39,2013-02-14 23:09:00,
2013-02-14 18:14:00,35.6,26.1,29.98,South,187,0.0,0.0,68,0.00,,,0.00,WeatherCatV1.11B39,2013-02-14 23:14:00,
2013-02-14 18:19:00,35.5,26.4,29.98,SW,232,0.0,0.0,69,0.00,,,0.00,WeatherCatV1.11B39,2013-02-14 23:19:00,
2013-02-14 18:24:00,35.3,26.2,29.99,SW,233,0.0,1.0,69,0.00,,,0.00,WeatherCatV1.11B39,2013-02-14 23:24:00,
2013-02-14 18:29:00,35.1,26.0,29.99,SSW,205,0.0,0.0,69,0.00,,,0.00,WeatherCatV1.11B39,2013-02-14 23:29:00,
2013-02-14 18:34:00,35.0,26.2,29.99,SW,224,0.0,0.0,70,0.00,,,0.00,WeatherCatV1.11B39,2013-02-14 23:34:00,
2013-02-14 18:39:00,34.9,26.1,29.99,SW,222,0.0,0.0,70,0.00,,,0.00,WeatherCatV1.11B39,2013-02-14 23:39:00,
2013-02-14 18:44:00,34.6,25.5,29.99,SW,222,0.0,0.0,69,0.00,,,0.00,WeatherCatV1.11B39,2013-02-14 23:44:00,
2013-02-14 18:49:00,34.2,25.8,29.99,SW,224,0.0,0.0,71,0.00,,,0.00,WeatherCatV1.11B39,2013-02-14 23:49:00,
2013-02-14 18:54:00,33.9,25.5,29.99,SW,222,0.0,0.0,71,0.00,,,0.00,WeatherCatV1.11B39,2013-02-14 23:54:00,
2013-02-14 18:59:00,33.5,25.8,29.99,SW,222,0.0,0.0,73,0.00,,,0.00,WeatherCatV1.11B39,2013-02-14 23:59:00,
2013-02-14 19:04:00,33.1,25.4,29.99,SW,222,0.0,0.0,73,0.00,,,0.00,WeatherCatV1.11B39,2013-02-15 00:04:00,
2013-02-14 19:09:00,32.7,25.3,29.99,SW,222,0.0,0.0,74,0.00,,,0.00,WeatherCatV1.11B39,2013-02-15 00:09:00,
2013-02-14 19:14:00,32.4,25.7,29.99,SW,222,0.0,0.0,76,0.00,,,0.00,WeatherCatV1.11B39,2013-02-15 00:14:00,
2013-02-14 19:19:00,32.3,25.6,29.99,SW,222,0.0,0.0,76,0.00,,,0.00,WeatherCatV1.11B39,2013-02-15 00:19:00,
2013-02-14 19:24:00,32.1,25.7,29.99,SW,222,0.0,0.0,77,0.00,,,0.00,WeatherCatV1.11B39,2013-02-15 00:24:00,
2013-02-14 19:29:00,31.9,25.5,29.99,SW,222,0.0,0.0,77,0.00,,,0.00,WeatherCatV1.11B39,2013-02-15 00:29:00,
2013-02-14 19:34:00,31.7,25.6,29.99,SW,222,0.0,0.0,78,0.00,,,0.00,WeatherCatV1.11B39,2013-02-15 00:34:00,
2013-02-14 19:39:00,32.2,25.2,29.99,ESE,114,0.0,0.0,75,0.00,,,0.00,WeatherCatV1.11B39,2013-02-15 00:39:00,
2013-02-14 19:44:00,32.6,25.6,29.99,ESE,114,0.0,0.0,75,0.00,,,0.00,WeatherCatV1.11B39,2013-02-15 00:44:00,
2013-02-14 19:49:00,32.8,25.1,29.99,ESE,114,0.0,1.0,73,0.00,,,0.00,WeatherCatV1.11B39,2013-02-15 00:49:00,
2013-02-14 19:54:00,33.3,25.6,29.99,ESE,114,0.0,0.0,73,0.00,,,0.00,WeatherCatV1.11B39,2013-02-15 00:54:00,
2013-02-14 19:59:00,33.5,25.5,30.00,South,179,1.0,2.0,72,0.00,,,0.00,WeatherCatV1.11B39,2013-02-15 00:59:00,
2013-02-14 20:04:00,33.8,25.1,30.00,SW,222,0.0,2.0,70,0.00,,,0.00,WeatherCatV1.11B39,2013-02-15 01:04:00,
2013-02-14 20:09:00,34.2,25.5,30.00,SW,222,0.0,0.0,70,0.00,,,0.00,WeatherCatV1.11B39,2013-02-15 01:09:00,
2013-02-14 20:14:00,34.4,25.3,30.00,SW,222,0.0,1.0,69,0.00,,,0.00,WeatherCatV1.11B39,2013-02-15 01:14:00,
2013-02-14 20:19:00,34.6,25.5,30.00,SSW,208,0.0,1.0,69,0.00,,,0.00,WeatherCatV1.11B39,2013-02-15 01:19:00,
2013-02-14 20:24:00,34.7,25.2,30.00,SW,233,3.0,3.0,68,0.00,,,0.00,WeatherCatV1.11B39,2013-02-15 01:24:00,
2013-02-14 20:29:00,34.8,25.3,30.00,SW,226,0.0,0.0,68,0.00,,,0.00,WeatherCatV1.11B39,2013-02-15 01:29:00,
2013-02-14 20:34:00,34.7,25.6,30.00,SW,226,0.0,1.0,69,0.00,,,0.00,WeatherCatV1.11B39,2013-02-15 01:34:00,
2013-02-14 20:39:00,34.7,25.6,30.00,WSW,250,0.0,1.0,69,0.00,,,0.00,WeatherCatV1.11B39,2013-02-15 01:39:00,
2013-02-14 20:44:00,34.6,25.5,30.00,WSW,250,0.0,1.0,69,0.00,,,0.00,WeatherCatV1.11B39,2013-02-15 01:44:00,
2013-02-14 20:49:00,34.5,25.4,30.00,West,259,0.0,1.0,69,0.00,,,0.00,WeatherCatV1.11B39,2013-02-15 01:49:00,
2013-02-14 20:54:00,34.5,25.4,30.00,West,263,0.0,1.0,69,0.00,,,0.00,WeatherCatV1.11B39,2013-02-15 01:54:00,
2013-02-14 20:59:00,34.2,25.5,30.00,West,263,0.0,1.0,70,0.00,,,0.00,WeatherCatV1.11B39,2013-02-15 01:59:00,
2013-02-14 21:04:00,33.9,25.5,30.00,West,263,0.0,1.0,71,0.00,,,0.00,WeatherCatV1.11B39,2013-02-15 02:04:00,
2013-02-14 21:09:00,33.8,25.4,30.00,West,263,0.0,0.0,71,0.00,,,0.00,WeatherCatV1.11B39,2013-02-15 02:09:00,
2013-02-14 21:14:00,33.6,25.2,30.00,West,263,0.0,1.0,71,0.00,,,0.00,WeatherCatV1.11B39,2013-02-15 02:14:00,
2013-02-14 21:19:00,33.5,25.5,30.00,West,264,0.0,0.0,72,0.00,,,0.00,WeatherCatV1.11B39,2013-02-15 02:19:00,
2013-02-14 21:24:00,33.2,25.2,30.00,West,263,0.0,1.0,72,0.00,,,0.00,WeatherCatV1.11B39,2013-02-15 02:24:00,
2013-02-14 21:29:00,33.1,25.1,30.00,West,263,0.0,0.0,72,0.00,,,0.00,WeatherCatV1.11B39,2013-02-15 02:29:00,
2013-02-14 21:34:00,33.1,25.1,30.00,West,270,0.0,0.0,72,0.00,,,0.00,WeatherCatV1.11B39,2013-02-15 02:34:00,
2013-02-14 21:39:00,32.9,25.2,30.00,West,270,0.0,0.0,73,0.00,,,0.00,WeatherCatV1.11B39,2013-02-15 02:39:00,
2013-02-14 21:44:00,32.8,25.1,30.00,West,270,0.0,0.0,73,0.00,,,0.00,WeatherCatV1.11B39,2013-02-15 02:44:00,
2013-02-14 21:49:00,32.6,24.9,30.00,West,270,0.0,0.0,73,0.00,,,0.00,WeatherCatV1.11B39,2013-02-15 02:49:00,
2013-02-14 21:54:00,32.4,25.1,30.00,SSE,159,0.0,0.0,74,0.00,,,0.00,WeatherCatV1.11B39,2013-02-15 02:54:00,
2013-02-14 21:59:00,32.3,25.0,30.00,North,356,0.0,1.0,74,0.00,,,0.00,WeatherCatV1.11B39,2013-02-15 02:59:00,
2013-02-14 22:04:00,32.2,24.9,30.00,North,356,0.0,1.0,74,0.00,,,0.00,WeatherCatV1.11B39,2013-02-15 03:04:00,
2013-02-14 22:09:00,32.1,25.1,30.00,North,356,0.0,1.0,75,0.00,,,0.00,WeatherCatV1.11B39,2013-02-15 03:09:00,
2013-02-14 22:14:00,31.9,24.9,30.00,SW,235,0.0,0.0,75,0.00,,,0.00,WeatherCatV1.11B39,2013-02-15 03:14:00,
2013-02-14 22:19:00,31.6,24.6,30.00,SW,235,0.0,0.0,75,0.00,,,0.00,WeatherCatV1.11B39,2013-02-15 03:19:00,
2013-02-14 22:24:00,31.3,24.6,30.00,SW,235,0.0,0.0,76,0.00,,,0.00,WeatherCatV1.11B39,2013-02-15 03:24:00,
2013-02-14 22:29:00,31.4,24.7,30.00,SE,139,0.0,1.0,76,0.00,,,0.00,WeatherCatV1.11B39,2013-02-15 03:29:00,
2013-02-14 22:34:00,31.5,24.5,30.00,NNE,18,0.0,0.0,75,0.00,,,0.00,WeatherCatV1.11B39,2013-02-15 03:34:00,
2013-02-14 22:39:00,31.4,24.4,30.00,NNE,17,0.0,0.0,75,0.00,,,0.00,WeatherCatV1.11B39,2013-02-15 03:39:00,
2013-02-14 22:44:00,31.3,24.6,30.00,NNE,17,0.0,0.0,76,0.00,,,0.00,WeatherCatV1.11B39,2013-02-15 03:44:00,
2013-02-14 22:49:00,31.4,24.7,30.01,NNW,328,0.0,0.0,76,0.00,,,0.00,WeatherCatV1.11B39,2013-02-15 03:49:00,
2013-02-14 22:54:00,31.5,24.8,30.01,NNW,327,0.0,0.0,76,0.00,,,0.00,WeatherCatV1.11B39,2013-02-15 03:54:00,
2013-02-14 22:59:00,31.4,24.7,30.01,NNW,328,0.0,0.0,76,0.00,,,0.00,WeatherCatV1.11B39,2013-02-15 03:59:00,
2013-02-14 23:04:00,31.4,24.7,30.01,NNW,327,0.0,1.0,76,0.00,,,0.00,WeatherCatV1.11B39,2013-02-15 04:04:00,
2013-02-14 23:09:00,31.6,24.9,30.01,NNE,12,0.0,0.0,76,0.00,,,0.00,WeatherCatV1.11B39,2013-02-15 04:09:00,
2013-02-14 23:14:00,31.7,24.7,30.01,North,11,0.0,0.0,75,0.00,,,0.00,WeatherCatV1.11B39,2013-02-15 04:14:00,
2013-02-14 23:19:00,31.6,24.6,30.01,North,7,0.0,0.0,75,0.00,,,0.00,WeatherCatV1.11B39,2013-02-15 04:19:00,
2013-02-14 23:24:00,31.7,24.7,30.02,NNW,330,0.0,1.0,75,0.00,,,0.00,WeatherCatV1.11B39,2013-02-15 04:24:00,
2013-02-14 23:29:00,31.6,24.6,30.01,NNW,330,0.0,0.0,75,0.00,,,0.00,WeatherCatV1.11B39,2013-02-15 04:29:00,
2013-02-14 23:34:00,31.4,24.7,30.01,NNW,330,0.0,0.0,76,0.00,,,0.00,WeatherCatV1.11B39,2013-02-15 04:34:00,
2013-02-14 23:39:00,31.4,24.4,30.01,North,353,1.0,1.0,75,0.00,,,0.00,WeatherCatV1.11B39,2013-02-15 04:39:00,
2013-02-14 23:44:00,31.6,24.6,30.01,SW,221,0.0,0.0,75,0.00,,,0.00,WeatherCatV1.11B39,2013-02-15 04:44:00,
2013-02-14 23:49:00,31.6,24.3,30.01,SW,221,0.0,0.0,74,0.00,,,0.00,WeatherCatV1.11B39,2013-02-15 04:49:00,
2013-02-14 23:54:00,31.6,24.3,30.01,SW,221,0.0,1.0,74,0.00,,,0.00,WeatherCatV1.11B39,2013-02-15 04:54:00,
2013-02-14 23:59:00,31.6,24.3,30.01,SW,226,0.0,1.0,74,0.00,,,0.00,WeatherCatV1.11B39,2013-02-15 04:59:00,